Location: Beuvrequen
(50.8014°N, 1.6652°E)
Time: 09:17:09
(UTC+00:00)

Cosmos 1844 - Pass Details

Date: 30 May 2022
Orbit: 821 x 869 km, 70.9° (Epoch: 02 July)

Event Time Altitude Azimuth Distance (km) Brightness Sun altitude
Rises 21:43:52 0° 329° (NNW) 3,465 9.1 -12.1°
Reaches altitude 10° 21:46:20 10° 329° (NNW) 2,525 7.7 -12.3°
Maximum altitude 21:52:10 82° 243° (WSW) 883 3.8 -12.8°
Enters shadow 21:56:32 18° 157° (SSE) 1,983 5.0 -13.1°
